ECMWFNIL_250_spd_060.txt.gz
Wind_Speed
42 41 40 39 38 36 35 33 33 34 35 36 36 36 36 35 35 35 34 33 32 31 30 29 28 27 26 26 26 26 27 28 28 29 30 30 31 32 33 34 33 32
41 40 38 36 35 33 31 31 31 32 34 35 35 35 35 34 33 33 32 31 30 30 29 28 27 26 26 25 25 26 26 28 29 30 31 32 33 33 33 33 32 31
38 36 35 33 32 31 31 31 31 32 34 35 35 35 34 33 33 32 31 30 29 29 28 28 27 27 26 26 25 25 26 27 28 29 30 30 31 31 31 30 30 30
36 34 33 33 32 32 31 31 32 32 33 34 35 35 34 33 32 32 31 30 29 28 28 28 28 28 28 27 26 26 25 26 27 28 29 30 31 32 32 32 31 31
31 32 33 34 35 34 32 31 32 33 33 34 34 34 34 33 33 32 31 30 29 29 29 29 29 29 28 28 27 26 27 28 29 30 32 33 33 34 33 33 32 32
26 27 27 30 31 30 30 30 31 32 32 32 33 33 35 35 34 33 32 31 30 30 30 30 29 29 29 28 28 28 28 28 29 30 31 31 32 33 33 34 34 34
23 22 23 26 28 29 29 29 29 29 29 30 32 34 35 35 35 33 32 32 32 32 32 32 32 31 30 29 28 27 27 28 29 30 30 30 31 33 34 35 35 34
25 26 27 29 30 30 29 27 27 28 29 30 32 33 33 33 32 31 30 30 31 31 30 30 30 30 29 29 28 29 31 32 31 31 31 31 32 33 35 36 35 35
32 33 33 33 32 31 30 28 28 29 30 30 32 33 34 34 33 32 31 31 31 30 28 27 26 27 30 31 32 34 35 34 32 32 33 33 34 35 36 36 36 37
37 36 35 35 35 35 34 33 32 33 33 34 35 36 38 38 37 37 35 34 32 31 30 30 31 34 36 36 37 38 37 34 34 34 35 36 37 38 37 37 38 38
40 38 37 37 36 36 35 35 35 36 36 37 37 38 39 39 38 37 35 34 34 35 36 37 40 42 42 41 41 39 37 36 37 38 39 39 39 39 39 39 39 41
41 40 39 37 36 36 37 37 38 38 37 37 38 38 38 38 37 36 36 37 39 40 42 44 45 45 43 42 41 39 38 39 40 41 41 41 41 41 41 41 43 45
42 43 42 40 39 39 39 39 39 40 40 41 42 42 42 41 40 41 42 44 44 45 47 47 47 45 43 42 40 39 40 41 41 42 42 42 42 42 43 45 47 48
44 44 44 43 43 42 40 39 40 41 42 43 46 48 49 48 48 48 48 48 47 48 48 47 46 44 42 41 40 40 41 41 42 43 44 44 44 46 47 48 48 48
45 45 46 46 46 45 44 44 44 44 45 45 46 48 49 49 49 48 47 47 48 48 48 46 44 43 42 41 41 41 42 43 44 45 45 46 47 48 49 48 48 47
43 45 45 46 46 46 47 49 50 50 50 49 48 48 49 49 47 46 45 46 47 47 47 45 44 43 43 43 44 44 45 46 46 47 47 47 48 48 49 48 47 47
41 42 43 45 45 46 48 49 49 50 50 50 50 50 50 49 48 47 47 48 49 48 47 46 45 45 45 46 47 47 47 48 48 49 48 49 49 50 50 50 50 50
43 43 43 44 44 46 47 47 47 48 48 48 48 48 49 50 51 51 52 52 51 48 47 46 47 48 48 48 48 48 49 50 50 51 51 52 52 52 52 53 53 53
47 47 47 46 45 45 46 46 48 49 49 49 50 50 51 52 52 52 51 50 48 48 48 49 49 49 49 49 49 50 51 52 53 54 55 55 55 55 55 56 56 56
52 51 50 49 47 47 47 48 49 51 52 54 54 55 56 56 55 54 53 53 53 54 54 54 52 52 52 52 53 54 56 57 58 59 60 60 60 60 59 59 59 59
59 58 57 55 53 52 51 52 53 54 57 58 59 59 60 61 61 60 60 60 60 59 58 57 56 56 57 57 58 59 60 61 62 63 63 64 64 64 63 62 62 62
63 64 64 62 61 59 58 58 59 59 60 60 60 60 61 61 61 61 61 61 60 59 58 58 59 60 62 62 62 62 62 63 64 65 66 66 67 67 66 66 66 67
66 67 67 66 65 64 64 63 63 63 63 62 62 61 61 60 59 59 60 60 59 59 60 60 60 62 66 66 65 65 65 66 66 67 67 68 70 71 71 71 72 73
71 70 70 70 69 69 68 68 68 68 68 68 67 67 66 65 64 63 64 65 65 66 68 67 66 68 71 71 70 70 70 70 71 71 71 72 73 74 75 75 76 77
74 73 73 73 72 73 73 72 72 72 72 72 73 73 73 72 71 70 70 71 71 72 74 74 73 74 75 76 76 76 76 76 77 78 78 79 79 79 79 80 80 81
75 75 75 74 74 74 74 74 74 74 75 75 76 76 76 77 76 76 76 77 77 77 78 78 78 78 79 80 81 82 82 83 84 84 85 85 84 84 85 85 86 86

ECMWFNIL_250_spd_063.txt.gz
Wind_Speed
39 38 37 37 38 38 37 37 36 35 35 34 34 34 34 33 32 30 30 29 29 29 29 29 29 29 29 28 27 26 25 25 25 25 25 25 25 25 25 25 25 26
38 38 37 37 37 38 38 38 37 36 35 34 33 32 32 31 29 29 29 29 29 29 29 29 29 28 28 27 26 25 24 24 23 23 23 23 23 23 23 24 24 25
33 33 36 37 37 38 38 37 36 35 34 32 31 30 30 29 28 27 28 28 28 28 28 28 28 27 27 26 25 24 24 23 23 23 23 23 23 22 22 23 23 24
23 22 25 28 31 32 33 34 34 33 32 30 29 29 28 27 26 26 27 27 28 27 27 27 28 27 27 26 26 25 25 24 24 24 24 24 24 24 23 23 24 25
22 20 20 22 24 25 27 28 29 30 30 29 28 27 27 27 26 26 27 27 28 28 28 28 28 28 28 28 27 26 25 25 24 24 25 25 24 23 23 23 23 22
26 25 25 25 26 26 26 25 26 28 28 28 27 26 27 28 27 27 28 28 29 29 29 30 30 30 30 29 29 28 27 26 25 26 25 23 22 22 22 22 21 21
30 28 26 26 26 26 26 25 25 27 27 26 27 27 28 29 29 29 29 30 31 31 31 32 32 33 32 32 31 29 28 26 26 25 23 22 22 23 24 23 22 22
33 30 27 25 25 26 27 26 25 25 26 26 27 29 29 30 30 30 30 31 32 31 31 31 32 32 31 31 30 28 27 25 23 23 23 25 28 28 27 26 25 25
35 32 28 26 27 28 30 31 30 29 28 29 31 32 32 32 31 31 31 32 31 31 30 30 30 29 29 29 28 27 25 24 24 25 28 31 34 34 31 29 29 28
40 37 33 30 30 31 32 34 35 35 34 34 35 36 36 35 34 33 33 33 33 33 32 32 32 32 31 31 29 28 27 28 30 33 36 38 39 37 33 31 31 32
42 41 40 37 36 36 36 37 39 40 39 39 38 38 37 37 36 36 36 36 37 37 36 35 34 33 33 32 31 32 33 35 38 39 41 42 42 38 35 33 34 35
43 42 42 41 40 40 40 41 41 41 42 42 41 41 41 41 40 41 41 40 39 38 37 36 36 37 36 36 36 37 39 40 41 42 44 44 43 40 37 36 37 38
44 43 42 42 42 42 43 43 43 42 41 41 41 41 41 42 42 41 41 40 39 37 37 37 38 38 38 39 39 40 42 43 44 45 46 45 43 41 40 40 40 41
45 44 43 43 43 44 44 45 45 43 42 42 42 43 43 43 43 42 41 40 39 39 39 39 40 41 42 43 44 45 46 47 47 47 46 45 43 43 43 43 43 43
45 45 44 44 44 44 44 44 44 44 43 43 43 43 45 46 46 46 45 44 44 44 44 45 46 47 48 49 50 50 50 49 49 48 46 45 45 45 46 45 45 45
47 46 46 46 46 46 46 45 44 43 42 41 42 43 45 46 46 46 46 48 49 51 51 52 52 52 53 53 52 51 50 50 50 49 47 47 47 47 47 47 47 47
50 50 49 49 48 48 48 47 46 45 44 42 42 44 47 48 49 49 51 53 55 56 55 55 54 54 53 53 52 51 51 51 50 49 49 49 49 49 48 48 48 48
50 50 50 51 51 51 50 50 50 49 48 46 46 47 49 52 54 55 56 57 57 57 56 55 53 52 52 53 52 52 51 50 49 49 49 49 49 49 48 48 49 48
46 46 46 47 49 52 53 52 52 51 50 52 53 54 54 56 57 58 58 57 57 56 55 54 53 53 52 52 52 50 50 49 49 49 50 50 50 50 49 50 50 51
43 42 42 43 46 50 53 54 54 54 55 56 57 58 57 57 57 57 56 56 56 55 54 53 52 52 51 51 51 51 50 50 51 52 53 53 53 53 53 53 53 53
47 44 44 44 46 49 51 53 55 57 58 58 58 58 57 56 55 54 54 54 54 54 55 54 54 53 53 53 53 53 54 55 56 58 57 57 56 56 55 55 54 55
57 54 52 50 49 49 50 51 52 53 54 55 55 54 53 52 52 52 53 54 55 56 57 57 56 56 56 57 57 58 59 59 59 58 57 56 56 56 56 56 57 59
64 63 61 59 57 55 54 53 53 53 53 53 53 53 53 53 53 53 54 56 57 59 60 60 61 61 61 61 61 60 60 59 58 58 58 59 60 61 62 63 65 66
67 67 67 66 64 63 62 61 60 59 58 57 57 58 58 59 60 60 61 62 63 64 64 64 64 64 64 63 63 63 63 63 64 65 66 68 69 70 71 71 72 73
69 69 70 69 69 68 68 68 67 66 65 64 64 63 63 64 65 66 67 68 68 68 68 68 68 68 68 68 69 69 70 71 72 73 74 75 75 76 77 77 78 79
72 72 73 73 73 73 74 73 72 72 73 73 72 71 70 70 70 70 70 71 71 71 72 73 73 74 74 75 75 76 77 78 79 79 80 80 81 81 82 83 83 84

ECMWFNIL_250_spd_069.txt.gz
Wind_Speed
43 43 44 45 41 37 39 42 44 45 46 46 45 41 36 33 32 34 35 35 34 33 32 31 29 29 30 32 34 35 35 34 33 31 31 31 30 30 30 31 31 32
47 46 47 46 42 40 40 41 42 43 44 44 42 37 32 30 31 31 32 34 33 32 31 30 29 28 29 30 31 32 32 32 31 31 30 30 30 29 29 29 30 31
50 50 49 47 45 43 42 43 43 43 42 38 35 32 32 31 30 29 30 31 32 31 30 29 28 28 28 28 29 30 30 30 30 30 30 29 29 28 28 28 29 30
51 50 48 47 47 46 45 45 44 42 39 36 35 35 34 31 28 26 27 28 29 29 29 28 27 27 27 27 28 29 29 29 30 29 29 28 27 28 28 29 29 30
52 50 47 47 46 46 47 47 45 42 40 39 38 35 31 28 27 27 28 29 29 29 28 27 26 26 26 27 28 28 29 29 29 29 28 26 26 27 29 30 30 29
52 51 50 49 49 49 50 49 47 45 44 43 37 32 30 30 29 29 30 32 33 32 31 29 27 27 27 28 28 29 29 29 28 27 26 25 25 27 29 30 31 30
49 51 51 49 49 49 48 47 46 45 45 42 37 34 34 34 34 34 34 34 35 35 34 31 29 28 28 28 28 28 28 27 26 25 25 25 26 27 29 30 31 31
48 51 51 49 47 45 44 43 43 43 42 41 39 38 38 38 38 37 36 35 35 36 35 33 31 29 29 28 28 27 26 24 24 24 25 26 26 28 30 31 32 33
49 51 52 51 48 45 43 42 43 43 42 41 41 40 40 39 39 38 37 36 35 36 36 35 33 31 30 29 28 28 27 27 27 28 28 28 29 29 30 32 32 32
50 52 53 53 50 48 47 46 46 46 45 44 43 42 42 41 39 39 38 37 37 37 36 35 34 32 31 31 31 31 32 32 32 32 32 32 31 31 31 32 31 30
47 50 53 53 51 50 50 49 49 48 48 46 44 44 44 43 42 41 41 40 39 38 37 35 33 33 33 33 34 35 36 36 36 35 35 35 34 32 31 30 29 28
46 48 51 52 52 52 52 53 52 50 49 47 44 44 46 46 44 44 43 41 39 37 36 35 34 34 35 36 37 37 38 37 37 38 38 39 37 33 30 30 31 32
44 47 52 54 54 54 53 53 53 52 51 49 45 44 45 45 43 42 41 39 38 37 36 36 36 37 38 39 39 39 39 39 40 40 41 41 39 35 34 34 36 39
34 35 42 49 53 55 54 52 51 51 50 48 46 45 45 44 42 40 39 38 37 37 37 38 38 39 39 40 41 41 42 42 43 43 43 42 40 39 39 39 40 40
36 34 33 36 41 47 50 49 49 49 47 47 47 47 46 45 44 42 41 40 39 40 40 41 41 41 41 42 43 44 44 44 44 44 43 43 42 42 42 41 41 41
40 41 39 37 36 38 41 43 44 45 46 46 48 48 47 46 46 46 45 44 44 44 44 44 44 44 44 45 45 46 46 46 45 45 44 44 43 43 43 43 43 43
40 42 43 44 43 41 40 41 43 44 45 46 47 47 47 46 46 46 47 46 46 46 46 46 46 46 46 46 47 47 46 46 46 46 46 45 46 46 46 46 46 47
41 42 44 47 47 47 46 46 46 46 45 45 45 45 44 44 43 43 43 44 44 43 43 44 44 45 45 46 46 47 47 48 48 48 48 48 48 47 47 47 48 49
41 42 43 44 45 46 46 47 46 46 45 45 44 44 45 45 44 43 43 43 43 43 43 44 45 47 48 49 49 50 51 51 51 51 50 49 49 48 49 50 50 51
42 44 44 44 44 45 45 46 47 46 46 46 45 46 47 48 47 47 47 47 47 48 49 50 51 54 54 54 53 53 53 52 52 52 51 51 50 51 52 52 52 52
42 44 46 47 48 47 46 46 47 47 46 47 47 48 49 51 51 51 51 50 51 53 54 54 55 56 55 54 54 53 52 52 52 52 52 52 53 54 54 54 53 52
47 46 46 47 48 49 48 47 48 48 47 48 50 51 52 54 55 54 54 53 54 55 55 54 53 53 53 53 53 52 52 52 53 53 53 53 54 54 53 52 51 52
53 53 52 51 50 50 49 50 50 50 49 50 52 54 54 54 55 55 54 53 51 51 51 51 51 51 52 53 54 54 53 53 53 53 53 53 52 51 51 50 51 54
54 55 55 55 55 53 52 52 52 52 51 51 51 52 52 52 51 51 50 48 48 48 48 48 49 49 50 52 53 53 53 53 54 53 52 52 51 50 51 51 53 56
54 53 53 54 56 56 56 55 54 54 54 53 51 50 49 49 49 50 49 48 48 48 48 49 49 49 50 52 53 54 55 56 56 55 54 54 54 53 54 54 56 58
55 53 54 55 57 58 60 60 58 57 57 57 57 56 55 55 55 55 56 55 54 53 52 52 52 52 53 55 56 57 59 59 60 61 60 61 62 62 63 64 65 66

ECMWFNIL_250_spd_072.txt.gz
Wind_Speed
59 57 55 52 50 49 46 45 46 46 46 45 46 47 49 48 44 42 43 46 47 47 44 39 36 34 31 29 30 32 33 33 33 33 34 35 37 37 38 38 37 37
67 64 61 56 52 51 48 47 48 50 49 47 45 44 44 41 39 40 43 44 45 45 42 38 35 32 29 28 28 29 30 31 32 33 33 34 35 36 36 36 36 36
68 67 66 63 59 56 53 52 51 50 51 50 46 43 42 40 39 40 41 42 43 42 39 36 32 29 27 26 26 26 27 29 31 32 33 34 34 34 35 35 35 35
62 64 66 66 65 63 62 60 57 53 51 49 45 42 42 42 42 42 42 41 41 39 36 32 29 28 28 27 26 26 27 28 29 29 31 32 34 34 34 34 35 35
56 58 62 65 66 66 66 64 60 56 53 51 46 43 43 45 46 46 45 43 42 39 35 32 31 31 30 29 29 30 30 31 29 28 28 30 31 32 32 33 34 33
55 54 56 61 63 64 64 62 61 59 57 54 49 45 46 49 50 49 48 47 44 41 37 36 35 35 33 32 32 32 33 33 33 32 30 29 28 28 29 31 31 31
58 56 56 58 61 63 63 62 61 60 58 54 50 47 47 50 52 52 51 50 47 44 41 41 40 38 37 36 34 34 34 35 36 36 33 29 26 26 27 27 28 28
60 60 59 60 62 62 63 62 60 58 57 54 51 49 49 51 52 52 52 50 48 46 45 44 42 41 40 38 37 36 36 36 37 37 34 30 26 25 26 26 27 27
61 62 62 62 63 63 63 63 61 59 57 57 56 54 53 53 53 52 51 49 48 46 45 44 43 42 40 39 37 36 36 36 37 37 34 30 27 27 27 27 28 28
56 61 62 62 62 63 63 63 62 61 60 59 60 59 58 56 54 52 50 49 48 47 47 46 44 42 40 38 37 36 36 36 35 35 33 31 30 29 29 29 29 30
49 54 57 59 59 58 59 60 61 62 61 61 61 61 59 57 55 52 50 49 49 48 47 46 44 42 40 38 37 36 36 37 36 34 33 32 32 31 31 32 32 32
45 48 50 53 55 55 55 57 59 60 59 59 60 60 58 57 55 54 52 51 50 49 48 46 44 43 41 40 38 37 37 37 36 35 33 33 34 34 33 34 34 35
43 45 46 47 49 52 54 56 58 59 60 60 60 60 59 57 56 54 54 53 53 51 50 48 47 45 44 42 41 40 39 37 36 34 34 34 35 35 36 36 37 37
39 41 44 45 45 47 52 55 56 56 57 58 59 59 59 57 56 54 54 54 53 52 51 49 48 47 46 43 42 40 39 37 36 35 35 36 36 37 38 38 39 39
41 41 43 44 43 44 48 51 51 51 52 52 52 53 54 55 55 55 55 54 53 52 50 48 48 47 45 43 41 40 39 38 38 38 38 38 38 39 39 39 40 39
44 44 45 46 46 46 48 49 49 49 49 49 48 48 49 51 53 54 55 55 53 51 49 48 48 46 44 43 42 42 41 41 40 40 40 40 40 39 39 39 40 40
43 44 45 47 48 48 47 48 48 48 47 46 46 46 46 47 48 49 50 50 49 48 48 49 48 47 45 44 44 43 43 42 42 42 41 41 40 39 39 41 42 44
45 46 46 48 49 49 47 46 46 46 46 45 45 45 45 46 46 46 46 46 46 47 48 48 47 46 45 45 44 44 44 42 41 41 41 41 42 42 44 45 46 47
47 49 49 50 51 51 50 48 47 47 47 48 47 46 46 47 49 49 49 49 49 49 50 49 48 47 47 46 45 44 43 42 41 41 42 43 45 47 47 47 47 46
46 49 50 51 52 51 52 51 50 50 50 51 51 51 50 49 50 52 53 53 52 52 52 51 50 50 48 47 46 45 44 44 44 45 47 49 50 49 48 47 47 47
47 47 48 51 52 53 53 53 53 53 53 53 54 54 53 53 53 54 53 53 52 52 51 51 51 50 49 48 47 48 49 48 49 51 53 53 51 49 48 49 49 50
47 46 47 49 52 55 56 56 56 56 56 56 55 55 55 55 56 56 55 54 54 53 52 51 50 50 50 51 52 53 53 53 53 54 53 52 51 51 51 51 50 50
49 48 48 49 52 55 56 57 58 58 58 58 57 57 57 57 57 57 57 57 57 56 55 54 53 53 53 54 55 55 54 53 53 53 52 51 51 51 50 49 49 49
52 52 52 52 53 54 55 57 59 60 61 61 60 60 60 59 59 58 58 59 58 58 57 57 56 55 55 55 54 53 53 52 52 52 51 50 50 49 49 50 50 51
55 57 57 58 58 57 56 56 58 59 61 62 62 62 61 61 60 60 60 60 59 58 57 57 56 55 54 52 51 51 50 50 50 50 50 50 50 51 51 51 52 54
59 60 61 62 62 60 59 58 57 57 57 57 57 58 58 59 59 60 60 59 58 58 57 56 54 53 51 50 50 50 50 50 50 51 51 51 52 53 53 54 56 58

ECMWFNIL_250_spd_075.txt.gz
Wind_Speed
48 50 54 57 58 59 59 59 59 57 54 53 53 53 52 51 51 51 51 51 49 47 46 46 46 45 44 43 41 40 39 36 34 33 33 33 33 33 33 33 34 34
48 50 52 55 58 59 60 59 59 58 56 53 53 53 53 53 51 49 48 47 46 46 46 46 45 44 44 42 40 39 36 34 32 33 33 34 34 33 33 33 33 33
44 47 50 52 54 57 59 59 58 58 56 53 50 50 51 51 50 49 48 47 47 47 47 46 46 45 44 41 39 37 35 34 34 35 35 35 35 35 34 34 33 34
41 43 45 48 50 52 56 58 59 60 59 56 54 53 53 53 52 52 52 51 50 49 47 47 46 46 44 42 39 37 36 36 37 37 37 37 37 36 35 34 34 34
39 39 41 45 46 47 49 53 56 59 60 61 61 60 60 60 60 60 60 58 56 53 51 49 47 46 45 43 41 39 39 39 39 39 39 39 39 38 37 36 35 34
34 34 37 42 44 45 47 48 49 53 55 57 59 59 60 61 62 63 62 61 57 54 52 51 49 47 46 45 43 42 41 42 42 42 41 41 40 40 39 37 36 35
34 34 39 44 45 47 49 48 48 50 52 53 53 54 55 57 60 60 60 58 56 54 53 52 51 49 48 47 46 45 44 44 44 43 42 42 42 41 40 38 37 34
37 40 43 44 45 48 51 51 51 51 52 54 54 53 53 54 56 58 58 57 56 55 54 53 52 50 49 48 48 47 47 46 45 44 43 43 42 41 40 38 37 34
37 42 45 46 47 49 51 53 53 53 53 54 55 56 55 54 55 57 58 57 56 54 52 51 49 48 48 48 49 49 48 47 46 45 44 44 43 41 40 38 36 34
36 41 44 46 49 50 51 53 54 54 55 55 55 56 56 55 56 57 57 57 55 53 50 49 48 48 49 50 50 49 49 48 47 46 45 44 43 42 40 38 36 34
37 39 37 38 45 48 49 51 52 53 54 55 55 55 54 54 55 56 56 55 53 52 50 49 49 50 50 51 51 50 49 48 47 46 45 44 43 42 40 38 35 34
37 39 34 32 39 45 47 49 50 51 52 52 52 52 52 52 52 53 53 52 50 50 50 50 51 52 52 52 52 51 50 49 47 46 45 44 44 42 41 39 36 35
38 41 39 37 40 43 44 47 49 50 50 50 49 48 48 48 49 49 48 48 48 49 51 52 53 53 53 53 52 51 50 48 47 46 45 45 44 42 41 40 38 37
39 42 43 43 44 42 40 42 45 45 45 45 44 43 43 45 46 45 45 46 48 50 51 52 53 53 53 53 53 51 50 48 47 47 46 45 44 43 42 41 40 40
42 44 44 44 46 44 40 39 41 43 44 44 43 42 42 44 44 44 46 48 50 52 53 54 54 54 54 54 53 51 49 49 48 47 46 46 45 44 43 42 42 41
45 47 48 47 47 46 43 41 43 44 45 45 44 43 43 43 43 44 47 49 51 53 53 53 53 52 52 51 50 49 49 48 46 46 45 45 44 43 43 43 42 42
46 48 49 49 48 47 45 44 44 43 42 42 43 43 44 43 43 44 45 47 49 49 49 48 48 48 48 48 47 47 46 45 44 44 45 45 44 44 44 43 43 43
45 47 47 47 47 48 47 47 46 44 42 42 44 45 45 45 45 46 46 48 48 47 47 46 46 46 46 46 45 45 45 45 46 46 47 47 46 45 44 44 44 44
43 44 45 46 47 48 49 48 47 46 45 46 48 49 49 49 50 51 51 51 50 49 49 49 48 48 47 47 47 47 47 48 49 48 48 47 46 46 45 45 46 46
48 47 48 48 48 49 49 48 48 48 48 49 50 51 53 54 54 54 55 54 53 52 52 51 50 49 49 49 48 48 49 49 49 48 47 47 47 47 47 48 49 50
50 50 49 49 50 49 48 48 50 50 50 51 51 51 53 55 55 55 55 55 54 54 53 52 51 50 49 49 49 49 49 49 48 47 46 47 48 49 50 50 51 53
47 48 48 48 49 49 50 50 50 51 53 53 53 53 55 56 56 55 54 53 52 52 51 50 49 49 49 49 49 49 50 49 48 48 48 49 51 52 53 53 54 55
47 48 49 49 48 49 51 51 52 54 56 57 57 57 58 58 57 55 53 52 50 49 48 47 47 47 48 49 49 50 51 51 51 52 52 54 55 56 57 57 58 57
51 49 49 49 48 49 50 51 53 56 59 60 59 59 58 58 56 55 54 52 51 50 49 49 49 49 50 52 52 53 54 54 55 55 56 57 58 59 59 60 60 60
55 54 54 52 51 51 52 53 54 57 59 60 61 60 59 57 55 54 53 52 52 52 52 53 53 54 55 56 56 57 57 57 58 58 59 60 60 61 61 61 62 61
57 57 58 57 56 56 56 56 57 58 60 61 61 61 60 59 57 55 54 53 53 54 54 55 56 56 57 58 58 59 60 61 61 62 62 62 63 63 63 62 61 60

ECMWFNIL_250_spd_078.txt.gz
Wind_Speed
27 26 27 29 31 33 36 42 48 51 51 52 53 52 51 52 52 51 50 50 50 49 49 48 48 48 46 44 41 41 41 41 41 41 41 41 39 37 35 35 35 35
24 25 26 26 27 30 33 37 44 49 53 55 57 58 57 56 56 55 53 52 50 49 48 48 47 46 45 43 42 42 42 42 42 42 42 40 38 37 36 36 36 37
27 28 27 25 25 27 30 36 41 44 47 48 50 56 60 60 60 59 57 54 52 50 48 46 44 43 43 42 43 44 45 47 47 45 43 41 39 38 37 37 38 38
34 33 30 28 27 26 29 35 37 38 41 42 42 47 54 58 60 60 59 57 55 53 50 48 46 45 45 46 47 49 50 51 50 47 44 41 40 39 39 39 39 39
38 35 32 30 29 27 30 33 34 35 38 41 47 49 51 53 55 57 58 58 57 56 54 52 51 50 51 52 52 53 53 52 49 47 44 41 40 40 41 40 39 39
37 36 35 34 32 32 32 31 32 34 32 36 47 50 49 49 49 50 53 54 54 55 54 53 53 53 53 53 53 53 52 50 48 46 43 41 41 42 42 41 40 40
34 34 36 36 36 36 36 35 36 36 33 37 45 45 45 46 45 45 46 47 48 49 49 49 49 50 50 50 51 51 50 49 47 44 42 42 42 42 42 42 41 41
36 36 37 37 36 36 36 38 42 43 41 45 48 45 44 44 44 44 45 44 45 45 46 46 46 46 46 47 49 49 48 47 45 42 41 42 42 42 42 42 41 41
38 37 37 36 36 37 36 37 41 46 49 50 48 46 45 44 43 45 46 45 46 46 46 46 46 47 46 46 46 46 46 45 43 42 42 42 42 42 42 42 42 42
35 34 33 33 36 38 39 39 40 45 49 49 46 43 43 44 45 46 46 46 47 48 48 48 48 48 48 47 46 46 46 45 44 43 43 43 43 42 42 42 42 41
33 33 32 33 35 37 40 42 43 46 48 46 43 43 45 45 46 46 46 47 48 49 49 49 50 49 49 48 46 46 45 44 44 43 43 43 43 42 42 42 42 41
31 33 35 37 37 36 38 41 43 47 50 46 44 45 47 47 47 47 47 48 49 49 48 49 50 49 49 47 45 44 43 42 43 43 42 42 42 42 42 42 42 41
32 33 37 40 38 37 37 37 38 44 49 49 48 49 48 47 47 47 47 48 48 48 48 48 48 47 46 44 42 41 41 41 42 42 42 42 42 42 42 41 42 41
33 35 39 41 39 38 38 37 37 43 47 47 48 49 48 46 46 46 46 47 46 46 46 46 45 44 43 42 41 40 40 41 41 42 42 42 43 43 43 41 41 41
31 35 39 40 39 40 39 37 38 42 43 44 45 46 48 48 48 47 46 46 45 44 44 43 43 42 42 41 41 40 40 41 42 43 44 44 44 45 44 42 41 40
31 33 37 38 38 40 40 40 41 42 41 41 41 43 47 50 50 49 47 46 44 43 42 41 41 40 40 40 40 41 41 42 44 45 46 46 45 44 42 41 39 37
33 35 37 38 40 42 42 44 46 47 46 44 42 42 46 48 48 48 47 46 45 43 42 40 39 39 39 40 40 41 42 43 44 45 44 43 42 41 39 38 38 37
37 39 39 41 43 45 46 47 48 48 49 48 47 46 48 49 49 49 48 46 45 45 44 42 41 40 40 40 40 40 39 40 41 41 41 40 40 39 39 39 39 40
42 43 43 44 45 47 48 49 50 49 47 48 48 49 51 52 51 50 49 47 46 47 47 46 45 44 43 42 42 42 41 41 42 42 41 41 41 41 41 41 42 42
44 45 46 46 45 45 46 48 52 51 48 47 47 48 51 52 52 52 51 49 48 48 49 48 47 46 45 45 45 45 45 45 45 45 44 44 43 44 44 44 44 45
45 45 47 46 46 45 45 47 51 50 48 47 47 48 50 51 52 53 53 53 53 52 50 49 49 47 47 47 47 48 48 47 47 48 48 48 47 47 47 47 48 48
48 47 47 47 46 46 46 48 50 49 48 48 49 50 51 53 53 54 55 56 57 55 53 51 50 49 48 48 48 48 48 49 49 50 51 51 51 50 50 50 50 51
52 53 51 49 48 48 49 50 51 51 51 51 52 53 54 56 56 56 57 59 58 55 53 51 51 50 49 48 48 48 49 50 51 52 52 52 52 51 51 51 52 52
53 58 58 54 52 52 53 54 54 55 55 54 54 56 56 57 58 58 58 58 57 54 52 51 50 50 49 49 48 49 50 51 52 52 52 52 53 53 53 53 54 55
48 54 61 61 57 55 55 56 55 56 56 55 55 56 57 57 58 58 58 58 57 55 53 52 51 50 50 50 50 50 51 52 52 53 53 53 54 54 55 56 56 56
48 47 56 63 62 57 56 56 56 57 57 56 55 55 56 57 57 57 57 57 57 57 56 55 55 54 54 54 53 53 53 53 53 54 55 55 56 57 58 58 59 59

ECMWFNIL_250_spd_081.txt.gz
Wind_Speed
32 38 39 38 38 38 39 40 41 38 32 32 36 40 43 47 50 53 52 48 46 47 47 47 47 47 48 49 49 48 46 46 45 43 41 38 37 37 38 38 39 40
38 39 37 34 34 36 37 37 39 39 35 32 33 35 37 38 42 51 54 52 50 50 49 50 49 49 49 49 48 47 46 46 45 43 40 40 40 40 40 41 42 40
40 38 36 35 34 36 36 34 33 34 33 32 32 32 32 31 31 36 46 50 51 51 51 51 51 50 49 48 48 48 47 47 46 45 44 44 44 43 43 43 42 39
39 36 36 36 35 34 34 33 32 31 31 32 33 32 31 31 31 28 34 44 48 50 50 51 51 50 50 50 50 50 49 48 47 47 46 46 46 44 44 43 40 37
40 36 35 37 37 35 34 34 33 31 32 33 34 35 35 34 34 34 34 40 45 48 49 50 51 51 52 53 53 52 51 50 50 49 48 48 46 43 42 40 38 36
42 40 38 38 39 38 36 36 34 32 33 34 34 36 37 37 39 43 43 43 45 47 48 49 50 50 51 52 52 52 52 51 51 50 49 47 43 40 38 37 36 36
40 40 38 36 37 40 41 38 37 36 35 35 36 38 38 38 42 48 50 48 46 44 44 46 47 47 48 48 48 49 49 48 48 46 44 41 39 37 36 36 36 36
38 38 37 36 36 40 44 40 37 37 37 37 40 41 40 40 43 48 49 47 45 43 44 46 46 44 44 43 43 42 41 41 40 39 38 38 37 37 36 36 36 37
39 38 37 38 37 38 41 42 39 39 40 41 44 44 43 42 45 48 47 43 42 42 42 44 43 41 39 38 38 37 37 37 37 37 38 38 38 38 37 37 36 36
38 39 38 40 40 37 37 39 41 41 43 45 46 46 45 45 47 49 47 42 40 40 41 42 42 40 39 38 37 37 37 37 38 38 39 39 40 39 39 37 36 35
39 39 39 39 38 37 36 37 40 41 43 46 48 48 48 48 50 51 49 45 43 44 45 44 42 41 40 38 38 39 39 39 39 40 40 40 41 41 39 36 35 35
42 40 40 37 34 35 37 38 40 41 41 43 46 48 50 51 51 51 50 48 47 47 47 46 44 43 42 41 41 41 40 40 40 39 39 40 40 39 37 34 34 36
44 42 42 39 35 35 36 37 40 43 42 41 42 46 49 49 49 50 50 50 50 49 48 48 47 45 44 44 44 43 41 40 40 39 40 40 39 38 35 34 34 37
43 42 42 41 39 37 37 36 37 42 43 42 43 46 47 47 48 50 51 52 52 50 49 49 48 47 46 46 44 42 41 41 40 40 39 39 37 36 35 34 35 38
42 42 43 44 42 39 39 39 40 42 44 44 46 47 47 47 48 50 51 51 50 49 48 48 49 48 48 47 45 44 43 42 40 39 38 38 38 37 36 35 35 38
43 42 41 42 42 40 40 41 43 45 45 46 47 48 48 50 51 51 50 48 47 47 47 48 49 49 48 48 48 46 44 42 41 40 40 40 40 39 36 35 36 38
45 45 42 39 40 40 39 40 43 45 46 48 49 49 50 51 51 51 49 48 48 49 49 48 48 48 49 49 49 48 46 44 43 43 43 42 41 39 37 36 36 38
46 47 46 41 38 38 38 41 44 45 46 48 49 50 51 51 50 49 49 50 51 51 50 49 49 49 50 50 50 48 47 45 45 45 44 43 41 39 37 36 36 38
43 45 47 45 41 38 40 42 44 46 48 49 49 49 50 50 48 47 47 48 49 50 50 50 50 50 50 51 50 49 48 47 47 46 45 43 42 41 40 40 40 41
40 41 44 45 43 41 42 43 44 46 48 49 49 51 51 50 48 48 48 49 51 52 52 52 52 51 51 51 51 51 49 48 48 46 45 45 44 44 44 44 44 44
41 42 43 45 44 43 43 44 46 48 49 49 50 51 52 52 52 53 54 54 55 56 56 55 56 55 53 53 53 52 51 50 49 48 48 47 48 48 48 47 47 47
43 45 46 46 46 46 46 46 48 49 49 51 52 53 54 54 55 55 56 57 57 58 59 58 58 58 56 55 54 53 52 51 50 50 49 50 50 51 50 50 49 49
45 47 48 48 48 49 50 50 51 50 49 48 50 52 54 55 56 56 57 57 57 58 60 60 59 58 57 55 54 53 53 52 52 52 52 52 52 52 52 50 50 49
50 50 50 49 49 51 52 53 54 52 50 47 46 46 47 48 52 54 55 57 57 58 59 60 59 59 58 57 55 55 55 55 54 54 54 54 54 53 52 51 50 50
55 55 54 53 53 52 52 53 54 53 51 50 49 48 47 48 50 53 54 56 58 58 59 61 61 61 60 59 58 58 58 57 56 55 55 55 55 54 52 51 51 52
58 57 56 55 55 55 55 55 55 53 53 54 55 55 53 53 54 56 57 59 61 61 62 63 64 64 63 62 61 60 59 58 56 56 55 55 55 54 53 53 53 54

ECMWFNIL_250_spd_084.txt.gz
Wind_Speed
39 38 35 33 33 33 33 30 29 31 35 37 40 41 42 42 40 40 38 38 40 43 45 47 46 45 45 45 46 46 46 46 46 45 45 45 45 45 45 46 45 44
40 38 37 38 39 37 35 32 29 30 30 31 34 36 38 38 36 35 34 32 33 37 42 47 49 50 49 48 47 46 46 46 46 46 46 46 45 45 46 46 46 45
41 41 40 41 41 39 36 34 32 31 29 28 29 31 33 33 31 31 31 30 29 31 34 39 44 48 51 52 49 47 46 46 46 46 46 45 45 45 46 46 46 46
40 41 41 40 39 37 36 34 33 31 29 28 29 29 29 29 29 30 32 31 30 31 30 31 35 38 42 47 49 48 47 46 46 46 45 45 45 45 45 45 46 47
39 39 37 36 36 36 36 34 32 32 31 30 28 28 28 29 31 32 33 32 31 33 32 29 30 33 34 36 40 42 44 44 43 43 43 44 45 45 45 47 48 49
39 35 33 33 35 38 37 35 34 33 33 32 29 27 27 30 32 33 34 35 32 32 35 34 33 35 35 36 37 37 37 39 40 40 41 42 43 45 47 48 49 48
39 34 29 30 34 39 39 38 37 34 32 32 32 31 30 31 34 35 35 37 35 34 38 40 39 38 38 39 40 40 39 39 40 40 40 41 43 45 46 47 45 44
36 31 27 29 35 40 40 40 38 34 32 33 34 35 34 33 36 38 36 37 38 39 41 43 44 43 41 41 41 41 41 41 41 41 41 41 41 42 42 42 41 39
33 29 30 34 36 37 39 39 36 34 34 35 36 37 38 36 36 38 39 38 40 42 43 43 43 42 42 42 40 39 40 41 41 41 41 40 39 38 38 38 38 37
38 33 34 35 34 33 36 38 36 35 35 35 36 36 38 40 39 39 40 41 42 44 44 43 43 41 40 40 38 38 39 42 43 42 41 40 39 38 37 37 37 36
45 41 36 32 31 31 34 36 37 38 37 36 35 34 36 39 40 41 42 42 42 43 44 43 43 42 41 40 38 38 41 43 43 43 42 42 41 40 39 38 37 36
47 44 39 34 31 32 33 35 36 36 37 37 36 36 37 39 39 41 43 43 43 44 44 44 43 43 43 42 41 40 42 44 44 45 45 44 43 42 41 39 37 35
47 45 42 39 36 35 36 36 35 34 34 36 37 38 40 40 40 40 40 42 45 46 46 45 44 44 44 44 44 43 44 46 47 47 46 44 44 42 40 38 37 37
46 44 43 43 39 36 36 38 38 36 35 36 38 40 40 39 39 39 38 39 42 45 46 46 45 45 45 46 46 46 47 48 48 47 46 45 44 42 40 39 38 37
47 43 43 43 40 35 35 38 40 39 37 37 38 40 41 41 39 38 39 41 42 43 45 45 45 44 44 45 45 45 46 47 48 48 46 45 43 42 42 41 39 37
48 45 44 45 44 41 40 41 42 41 39 39 39 38 40 43 44 42 41 42 43 43 44 43 43 43 43 43 43 44 46 48 49 47 45 44 43 43 42 41 40 39
47 47 47 48 48 46 43 43 43 42 41 43 44 42 41 43 46 46 44 44 43 43 43 42 41 41 42 42 43 45 47 48 47 46 45 45 45 44 43 43 42 42
47 47 47 49 50 48 45 45 46 45 43 44 45 45 44 44 45 46 46 46 45 45 44 44 44 44 44 44 45 46 47 47 47 48 48 49 49 48 47 46 45 45
49 48 47 48 49 48 45 45 47 46 45 44 44 43 44 45 45 46 46 46 46 46 47 47 47 47 48 48 48 49 49 50 50 51 51 51 51 50 49 49 48 47
50 51 50 48 48 46 44 44 45 45 44 44 43 43 44 45 46 46 46 46 47 47 48 48 48 48 48 49 50 51 51 52 53 53 53 52 52 52 51 50 49 47
50 51 52 51 48 47 45 44 44 44 44 43 43 45 45 45 45 47 46 46 47 48 49 49 49 49 49 50 51 52 53 54 54 54 53 53 53 53 52 50 49 48
50 50 51 52 50 47 47 46 44 43 43 42 43 45 44 44 46 47 47 47 48 49 50 50 50 51 52 52 53 54 54 55 55 55 55 55 54 54 53 53 52 51
49 51 51 52 51 49 49 49 47 46 44 43 44 44 43 45 46 46 47 48 48 49 50 51 53 54 55 55 56 56 57 58 58 58 58 58 57 56 57 58 55 52
48 50 51 52 52 51 49 49 49 49 47 46 47 45 45 48 49 48 49 50 49 50 51 52 54 57 59 60 60 61 61 61 61 61 61 60 59 59 60 61 57 53
50 50 50 52 52 51 50 48 49 49 49 49 49 48 48 51 51 50 52 54 55 56 57 58 59 61 62 64 65 66 66 65 64 64 62 61 61 60 60 61 59 57
52 53 52 52 53 53 53 52 52 52 52 51 51 49 50 52 52 48 48 48 50 53 55 56 58 59 58 60 61 64 65 64 64 63 61 60 61 61 62 62 62 61

ECMWFNIL_250_spd_087.txt.gz
Wind_Speed
51 49 45 43 41 36 35 37 37 32 29 29 31 34 38 42 42 39 34 32 37 41 40 40 40 40 40 41 43 45 47 48 47 46 45 45 43 43 42 43 43 42
53 52 49 46 44 40 36 37 37 33 30 29 29 31 34 39 42 39 34 32 36 41 42 42 41 38 38 40 41 44 46 47 47 47 47 46 45 45 44 44 44 43
57 55 52 48 47 43 37 37 38 35 33 31 30 29 30 35 40 42 41 37 36 38 41 44 42 38 37 40 42 45 47 47 47 48 47 46 45 45 45 44 44 44
56 56 54 52 51 46 40 39 41 38 36 34 31 29 29 31 35 38 40 39 38 38 40 41 41 39 37 38 42 45 47 47 48 49 49 49 48 48 48 45 44 44
51 53 53 52 51 48 43 41 43 42 40 38 34 32 31 30 31 33 35 38 39 40 39 38 37 36 35 38 42 46 47 46 44 45 48 50 50 51 49 45 41 40
46 49 49 47 48 48 45 43 44 44 43 40 37 35 35 34 32 31 32 35 37 38 37 37 36 35 36 39 43 46 47 43 40 40 42 42 42 43 41 38 36 36
42 43 44 43 42 44 44 43 44 46 43 40 39 37 38 37 35 33 32 33 35 36 35 35 35 35 37 39 39 42 43 40 40 42 40 37 35 34 34 34 34 35
35 37 38 39 38 39 41 42 43 44 42 40 40 39 39 38 37 35 33 32 33 35 36 35 34 35 38 39 39 40 39 39 41 43 41 39 38 37 36 36 37 38
31 33 35 38 38 37 39 40 41 41 41 40 41 40 39 38 37 36 33 32 33 35 38 38 37 38 39 40 40 41 42 41 43 43 40 39 41 42 41 40 40 40
29 32 36 39 39 38 39 39 38 40 41 40 40 40 39 37 36 37 35 33 33 35 38 40 41 41 42 42 41 41 42 43 43 42 40 40 41 43 42 41 42 42
29 33 37 39 39 37 39 38 36 37 39 39 38 38 39 37 36 37 37 37 37 37 38 39 42 45 46 46 44 43 42 42 42 42 41 41 41 41 42 42 43 44
31 35 35 38 38 36 37 37 35 34 36 37 37 37 39 39 37 36 37 39 41 41 41 41 43 46 47 47 46 45 44 44 43 43 43 41 40 40 41 42 44 46
35 38 36 37 38 37 37 36 34 34 34 34 35 37 39 39 37 37 39 41 42 43 43 43 45 47 47 47 47 47 47 47 46 45 44 42 41 41 42 43 45 46
38 42 38 38 39 38 38 37 35 35 34 33 33 36 39 40 39 39 41 42 41 42 43 45 46 47 47 47 47 47 47 47 46 45 44 43 43 44 44 44 46 47
38 46 43 39 39 39 39 37 35 35 34 33 33 35 38 40 40 40 41 42 41 41 42 44 46 46 46 47 47 47 47 47 47 47 46 45 45 45 46 47 47 49
36 47 48 43 39 39 40 37 34 34 34 33 33 35 37 39 39 38 40 42 43 44 44 45 45 45 45 46 47 47 47 48 48 48 47 47 47 48 49 48 48 49
35 44 50 49 44 40 40 39 35 34 36 36 35 36 37 39 40 40 39 40 42 44 45 45 45 44 44 44 44 44 45 46 47 47 48 48 49 49 49 48 48 48
35 42 49 51 48 43 40 39 37 36 38 39 38 38 38 39 42 43 41 41 42 44 45 45 44 43 42 42 42 43 45 46 47 47 47 48 48 48 47 47 47 48
36 41 46 49 49 45 40 38 39 39 39 39 38 38 39 40 43 44 43 43 44 44 46 47 47 46 45 44 44 45 45 46 47 46 46 45 46 46 47 47 48 48
37 41 43 46 48 46 41 39 41 43 42 40 39 39 39 40 42 44 44 45 45 45 45 47 48 49 49 49 48 48 48 48 48 47 46 46 47 48 48 48 49 49
38 42 42 44 45 46 44 42 42 44 45 44 43 42 42 41 42 44 45 46 48 49 50 50 50 50 50 50 51 51 51 51 50 49 49 49 49 50 50 50 51 51
37 43 44 44 44 45 45 44 43 43 45 47 47 47 46 44 44 46 47 48 49 51 53 53 54 53 52 51 51 52 52 53 52 52 52 51 51 51 51 51 52 53
35 41 45 46 45 45 46 46 45 44 43 45 49 50 49 48 49 50 50 51 52 52 52 53 53 53 52 52 52 51 51 52 52 52 52 52 52 52 52 53 55 55
34 38 44 47 48 48 48 48 48 46 45 45 47 49 51 52 53 53 53 53 52 51 51 52 52 52 53 53 52 52 51 52 52 52 53 53 53 54 55 57 59 57
36 37 41 46 49 50 50 51 51 50 48 47 46 47 49 50 51 52 52 51 50 48 47 48 49 50 51 50 49 49 50 50 51 51 51 53 55 58 59 59 60 61
40 38 40 45 49 50 51 53 53 52 51 49 47 47 47 43 43 46 48 47 49 49 48 48 49 49 48 48 49 50 51 52 53 53 55 58 62 62 62 62 63 65